• In Czech Republic
  • List of Countries
  • For 7 days
  • Water Temperature
  • Satellite Maps
  • Weather Map
  • Weather Widgets
  • user-avatar
    Login

    Hourly Weather Garoua

    Today, 24 October, Tuesday

    Time Temperature Precipitation Wind Pressure Humidity
    00:00 +29°C° 0 mm 1 mps 741 mmHg 36%
    01:00 +28°C° 0 mm 1 mps 741 mmHg 37%
    02:00 +28°C° 0 mm 1 mps 741 mmHg 38%
    03:00 +27°C° 0 mm 1 mps 741 mmHg 39%
    04:00 +27°C° 0 mm 1 mps 741 mmHg 40%
    05:00 +27°C° 0 mm 1 mps 741 mmHg 41%
    06:00 +27°C° 0 mm 1 mps 742 mmHg 42%
    07:00 +28°C° 0 mm 1 mps 742 mmHg 43%
    08:00 +31°C° 0 mm 1 mps 742 mmHg 39%
    09:00 +34°C° 0 mm 2 mps 742 mmHg 34%
    10:00 +37°C° 0 mm 2 mps 743 mmHg 29%
    11:00 +39°C° 0 mm 2 mps 742 mmHg 25%
    12:00 +41°C° 0 mm 1 mps 741 mmHg 21%
    13:00 +43°C° 0 mm 1 mps 740 mmHg 16%
    14:00 +43°C° 0 mm 1 mps 739 mmHg 16%
    15:00 +42°C° 0 mm 1 mps 739 mmHg 16%
    16:00 +41°C° 0 mm 1 mps 738 mmHg 15%
    17:00 +39°C° 0 mm 1 mps 739 mmHg 18%
    18:00 +35°C° 0 mm 1 mps 739 mmHg 21%
    19:00 +33°C° 0 mm 1 mps 739 mmHg 24%
    20:00 +32°C° 0 mm 1 mps 740 mmHg 25%
    21:00 +32°C° 0 mm 1 mps 740 mmHg 26%
    22:00 +31°C° 0 mm 1 mps 741 mmHg 27%
    23:00 +30°C° 0 mm 1 mps 741 mmHg 28%

    Tomorrow, 25 October, Wednesday

    Time Temperature Precipitation Wind Pressure Humidity
    00:00 +30°C° 0 mm 1 mps 741 mmHg 29%
    01:00 +29°C° 0 mm 1 mps 741 mmHg 30%
    02:00 +28°C° 0 mm 1 mps 740 mmHg 32%
    03:00 +28°C° 0 mm 1 mps 740 mmHg 33%
    04:00 +25°C° 0 mm 0 mps 740 mmHg 34%
    05:00 +25°C° 0 mm 0 mps 741 mmHg 36%
    06:00 +26°C° 0 mm 0 mps 741 mmHg 37%
    07:00 +28°C° 0 mm 1 mps 742 mmHg 39%
    08:00 +31°C° 0 mm 1 mps 742 mmHg 34%
    09:00 +34°C° 0 mm 1 mps 743 mmHg 29%
    10:00 +37°C° 0 mm 1 mps 743 mmHg 24%
    11:00 +39°C° 0 mm 1 mps 742 mmHg 21%
    12:00 +41°C° 0 mm 1 mps 741 mmHg 18%
    13:00 +43°C° 0 mm 1 mps 740 mmHg 15%
    14:00 +42°C° 0 mm 1 mps 740 mmHg 15%
    15:00 +41°C° 0 mm 1 mps 739 mmHg 14%
    16:00 +41°C° 0 mm 1 mps 739 mmHg 14%
    17:00 +37°C° 0 mm 1 mps 739 mmHg 16%
    18:00 +35°C° 0 mm 1 mps 740 mmHg 19%
    19:00 +33°C° 0 mm 1 mps 740 mmHg 21%
    20:00 +32°C° 0 mm 1 mps 741 mmHg 22%
    21:00 +31°C° 0 mm 1 mps 742 mmHg 23%
    22:00 +30°C° 0 mm 1 mps 742 mmHg 24%
    23:00 +29°C° 0 mm 1 mps 742 mmHg 25%

    Day after tomorrow, 26 October, Thursday

    Time Temperature Precipitation Wind Pressure Humidity
    00:00 +27°C° 0 mm 0 mps 742 mmHg 26%
    01:00 +26°C° 0 mm 0 mps 741 mmHg 27%
    02:00 +25°C° 0 mm 0 mps 741 mmHg 28%
    03:00 +25°C° 0 mm 0 mps 741 mmHg 29%
    04:00 +24°C° 0 mm 0 mps 741 mmHg 30%
    05:00 +25°C° 0 mm 0 mps 741 mmHg 31%
    06:00 +25°C° 0 mm 0 mps 742 mmHg 32%
    07:00 +26°C° 0 mm 0 mps 743 mmHg 33%
    08:00 +31°C° 0 mm 1 mps 743 mmHg 29%
    09:00 +34°C° 0 mm 1 mps 743 mmHg 24%
    10:00 +38°C° 0 mm 2 mps 744 mmHg 20%
    11:00 +40°C° 0 mm 1 mps 743 mmHg 18%
    12:00 +42°C° 0 mm 1 mps 742 mmHg 15%
    13:00 +44°C° 0 mm 1 mps 741 mmHg 13%
    14:00 +43°C° 0 mm 1 mps 740 mmHg 13%
    15:00 +42°C° 0 mm 1 mps 739 mmHg 13%
    16:00 +42°C° 0 mm 1 mps 739 mmHg 13%
    17:00 +39°C° 0 mm 1 mps 739 mmHg 16%
    18:00 +36°C° 0 mm 1 mps 740 mmHg 19%
    19:00 +33°C° 0 mm 1 mps 740 mmHg 22%
    20:00 +33°C° 0 mm 1 mps 740 mmHg 23%
    21:00 +32°C° 0 mm 1 mps 741 mmHg 24%
    22:00 +32°C° 0 mm 1 mps 741 mmHg 24%
    23:00 +31°C° 0 mm 1 mps 741 mmHg 24%

    27 October, Friday

    Time Temperature Precipitation Wind Pressure Humidity
    00:00 +31°C° 0 mm 1 mps 741 mmHg 25%
    01:00 +31°C° 0 mm 1 mps 741 mmHg 25%
    02:00 +30°C° 0 mm 1 mps 740 mmHg 26%
    03:00 +29°C° 0 mm 1 mps 740 mmHg 27%
    04:00 +28°C° 0 mm 1 mps 740 mmHg 28%
    05:00 +28°C° 0 mm 1 mps 741 mmHg 30%
    06:00 +28°C° 0 mm 1 mps 741 mmHg 31%
    07:00 +27°C° 0 mm 0 mps 742 mmHg 33%
    08:00 +32°C° 0 mm 1 mps 742 mmHg 28%
    09:00 +35°C° 0 mm 1 mps 742 mmHg 22%
    10:00 +40°C° 0 mm 1 mps 742 mmHg 17%
    11:00 +41°C° 0 mm 1 mps 741 mmHg 15%
    12:00 +42°C° 0 mm 1 mps 740 mmHg 13%
    13:00 +44°C° 0 mm 1 mps 739 mmHg 11%
    14:00 +43°C° 0 mm 1 mps 739 mmHg 11%
    15:00 +43°C° 0 mm 1 mps 738 mmHg 11%
    16:00 +42°C° 0 mm 1 mps 738 mmHg 11%
    17:00 +40°C° 0 mm 1 mps 738 mmHg 14%
    18:00 +36°C° 0 mm 1 mps 739 mmHg 16%
    19:00 +33°C° 0 mm 1 mps 739 mmHg 18%
    20:00 +33°C° 0 mm 1 mps 739 mmHg 19%
    21:00 +32°C° 0 mm 1 mps 740 mmHg 21%
    22:00 +31°C° 0 mm 1 mps 740 mmHg 22%
    23:00 +30°C° 0 mm 1 mps 740 mmHg 23%

    28 October, Saturday

    Time Temperature Precipitation Wind Pressure Humidity
    00:00 +29°C° 0 mm 1 mps 740 mmHg 24%
    01:00 +29°C° 0 mm 1 mps 739 mmHg 25%
    02:00 +28°C° 0 mm 1 mps 739 mmHg 26%
    03:00 +26°C° 0 mm 0 mps 739 mmHg 27%
    04:00 +25°C° 0 mm 0 mps 739 mmHg 28%
    05:00 +25°C° 0 mm 0 mps 740 mmHg 29%
    06:00 +25°C° 0 mm 0 mps 741 mmHg 30%
    07:00 +28°C° 0 mm 1 mps 741 mmHg 32%
    08:00 +31°C° 0 mm 1 mps 741 mmHg 27%
    09:00 +34°C° 0 mm 1 mps 741 mmHg 22%
    10:00 +37°C° 0 mm 1 mps 741 mmHg 17%
    11:00 +40°C° 0 mm 1 mps 740 mmHg 16%
    12:00 +42°C° 0 mm 1 mps 740 mmHg 14%
    13:00 +44°C° 0 mm 1 mps 739 mmHg 12%
    14:00 +43°C° 0 mm 1 mps 738 mmHg 12%
    15:00 +43°C° 0 mm 1 mps 738 mmHg 12%
    16:00 +42°C° 0 mm 1 mps 737 mmHg 12%
    17:00 +40°C° 0 mm 1 mps 738 mmHg 15%
    18:00 +36°C° 0 mm 1 mps 738 mmHg 17%
    19:00 +34°C° 0 mm 1 mps 738 mmHg 19%
    20:00 +33°C° 0 mm 1 mps 739 mmHg 20%
    21:00 +32°C° 0 mm 1 mps 739 mmHg 21%
    22:00 +31°C° 0 mm 1 mps 740 mmHg 22%
    23:00 +31°C° 0 mm 1 mps 739 mmHg 25%

    29 October, Sunday

    Time Temperature Precipitation Wind Pressure Humidity
    00:00 +30°C° 0 mm 1 mps 739 mmHg 27%
    01:00 +29°C° 0 mm 1 mps 739 mmHg 29%
    02:00 +29°C° 0 mm 1 mps 739 mmHg 33%
    03:00 +28°C° 0 mm 1 mps 739 mmHg 36%
    04:00 +27°C° 0 mm 1 mps 740 mmHg 40%
    05:00 +27°C° 0 mm 1 mps 740 mmHg 42%
    06:00 +28°C° 0 mm 1 mps 740 mmHg 45%
    07:00 +28°C° 0 mm 1 mps 741 mmHg 48%
    08:00 +31°C° 0 mm 1 mps 741 mmHg 40%
    09:00 +34°C° 0 mm 1 mps 741 mmHg 32%
    10:00 +38°C° 0 mm 2 mps 741 mmHg 25%
    11:00 +40°C° 0 mm 1 mps 740 mmHg 22%
    12:00 +42°C° 0 mm 1 mps 739 mmHg 18%
    13:00 +43°C° 0 mm 1 mps 738 mmHg 15%
    14:00 +43°C° 0 mm 1 mps 738 mmHg 15%
    15:00 +42°C° 0 mm 1 mps 737 mmHg 15%
    16:00 +42°C° 0 mm 1 mps 737 mmHg 15%
    17:00 +39°C° 0 mm 1 mps 737 mmHg 18%
    18:00 +36°C° 0 mm 1 mps 738 mmHg 20%
    19:00 +33°C° 0 mm 1 mps 738 mmHg 23%
    20:00 +33°C° 0 mm 1 mps 739 mmHg 24%
    21:00 +32°C° 0 mm 1 mps 739 mmHg 25%
    22:00 +31°C° 0 mm 1 mps 739 mmHg 27%
    23:00 +31°C° 0 mm 1 mps 739 mmHg 27%

    30 October, Monday

    Time Temperature Precipitation Wind Pressure Humidity
    00:00 +30°C° 0 mm 1 mps 739 mmHg 28%
    01:00 +29°C° 0 mm 1 mps 739 mmHg 29%
    02:00 +29°C° 0 mm 1 mps 739 mmHg 30%
    03:00 +28°C° 0 mm 1 mps 739 mmHg 32%
    04:00 +28°C° 0 mm 1 mps 739 mmHg 33%
    05:00 +28°C° 0 mm 1 mps 739 mmHg 36%
    06:00 +28°C° 0 mm 1 mps 740 mmHg 39%
    07:00 +28°C° 0 mm 1 mps 741 mmHg 42%
    08:00 +31°C° 0 mm 1 mps 741 mmHg 36%
    09:00 +34°C° 0 mm 1 mps 741 mmHg 31%
    10:00 +37°C° 0 mm 1 mps 741 mmHg 26%
    11:00 +40°C° 0 mm 1 mps 740 mmHg 22%
    12:00 +42°C° 0 mm 1 mps 739 mmHg 19%
    13:00 +44°C° 0 mm 1 mps 738 mmHg 16%
    14:00 +43°C° 0 mm 1 mps 738 mmHg 15%
    15:00 +43°C° 0 mm 1 mps 738 mmHg 15%
    16:00 +42°C° 0 mm 1 mps 737 mmHg 15%
    17:00 +40°C° 0 mm 1 mps 738 mmHg 18%
    18:00 +36°C° 0 mm 1 mps 738 mmHg 21%
    19:00 +34°C° 0 mm 1 mps 738 mmHg 24%
    20:00 +33°C° 0 mm 1 mps 739 mmHg 25%
    21:00 +32°C° 0 mm 1 mps 739 mmHg 27%
    22:00 +31°C° 0 mm 1 mps 740 mmHg 28%
    23:00 +31°C° 0 mm 1 mps 740 mmHg 29%
    Show more